GW3736 Weather Reports


time (UTC)temp
C
wind
direction
speed
KPH
gust
KPH
rain 1hr
cm
rain 24hr
cm
rain mn
cm
humidity
%
barometer
mb
20260504050548 11 228 6.4 17.7 0.00 0.00 0.00 65 1004.0
20260504045544 11 191 6.4 14.5 0.00 0.00 0.00 65 1004.1
20260504044540 11 208 8.0 22.5 0.00 0.00 0.00 65 1004.1
20260504043516 11 192 8.0 22.5 0.00 0.00 0.00 65 1004.2
20260504042532 11 187 8.0 17.7 0.00 0.00 0.00 64 1004.3
20260504041528 11 202 4.8 17.7 0.00 0.00 0.00 63 1004.4
20260504040524 11 212 6.4 20.9 0.00 0.00 0.00 62 1004.4
20260504035520 12 198 6.4 14.5 0.00 0.00 0.00 60 1004.6
20260504034516 12 211 6.4 16.1 0.00 0.00 0.00 59 1004.5
20260504033532 12 194 8.0 17.7 0.00 0.00 0.00 59 1004.7
20260504032528 12 193 4.8 12.9 0.00 0.00 0.00 58 1004.9
20260504031543 12 224 6.4 16.1 0.00 0.00 0.00 57 1004.9
20260504030540 12 211 4.8 9.7 0.00 0.00 0.00 57 1005.0
20260504025556 12 200 4.8 14.5 0.00 0.00 0.00 57 1005.1
20260504024532 12 215 8.0 16.1 0.00 0.00 0.00 57 1005.3
20260504023548 12 216 6.4 16.1 0.00 0.00 0.00 56 1005.3
20260504022524 12 222 6.4 16.1 0.00 0.00 0.00 56 1005.3
20260504021520 12 212 8.0 22.5 0.00 0.00 0.00 55 1005.3
20260504020516 12 224 4.8 11.3 0.00 0.00 0.00 54 1005.3
20260504015532 13 234 8.0 24.1 0.00 0.00 0.00 54 1005.4
20260504014548 13 226 8.0 17.7 0.00 0.00 0.00 53 1005.3
20260504013523 13 237 9.7 17.7 0.00 0.00 0.00 52 1005.2
20260504012519 13 240 11.3 25.7 0.00 0.00 0.00 51 1005.2
20260504011535 14 239 11.3 17.7 0.00 0.00 0.00 51 1005.1
20260504010531 14 244 12.9 27.4 0.00 0.00 0.00 50 1005.2
20260504005527 15 258 16.1 33.8 0.00 0.00 0.00 49 1004.9
20260504004543 15 250 16.1 30.6 0.00 0.00 0.00 47 1004.8
20260504003519 15 238 12.9 30.6 0.00 0.00 0.00 45 1004.6
20260504002535 15 247 11.3 25.7 0.00 0.00 0.00 44 1004.4
20260504001531 15 249 11.3 30.6 0.00 0.00 0.00 44 1004.3
20260504000526 15 245 14.5 35.4 0.00 0.00 0.00 44 1004.3
20260503235522 16 251 12.9 25.7 0.00 0.00 0.00 43 1004.2
20260503234518 16 242 12.9 38.6 0.00 0.00 0.00 43 1004.3
20260503233534 16 243 9.7 20.9 0.00 0.00 0.00 43 1004.2
20260503232530 16 244 9.7 20.9 0.00 0.00 0.00 42 1004.4
20260503231526 16 241 8.0 27.4 0.00 0.00 0.00 41 1004.5
20260503230521 17 258 14.5 27.4 0.00 0.00 0.00 40 1004.3
20260503225518 17 247 14.5 29.0 0.00 0.00 0.00 39 1004.3
20260503224534 17 254 9.7 22.5 0.00 0.00 0.00 40 1004.6
20260503223530 17 237 16.1 29.0 0.00 0.00 0.00 40 1004.7
20260503222526 17 245 9.7 22.5 0.00 0.00 0.00 40 1004.9
20260503221601 17 242 12.9 30.6 0.00 0.00 0.00 40 1004.9
20260503220537 17 256 14.5 40.2 0.00 0.00 0.00 40 1004.8
20260503215553 17 238 12.9 25.7 0.00 0.00 0.00 40 1004.9
20260503214529 17 261 17.7 35.4 0.00 0.00 0.00 39 1004.8
20260503213525 17 252 11.3 22.5 0.00 0.00 0.00 39 1004.8
20260503212521 17 246 14.5 27.4 0.00 0.00 0.00 39 1005.0
20260503211517 17 248 16.1 35.4 0.00 0.00 0.00 39 1004.8
20260503210552 17 240 11.3 30.6 0.00 0.00 0.00 39 1004.8
20260503205528 17 239 11.3 24.1 0.00 0.00 0.00 38 1004.9
20260503204524 17 225 12.9 29.0 0.00 0.00 0.00 38 1004.8
20260503203520 17 248 19.3 38.6 0.00 0.00 0.00 37 1005.1
20260503202516 17 239 12.9 29.0 0.00 0.00 0.00 36 1004.9
20260503201613 17 253 14.5 27.4 0.00 0.00 0.00 36 1005.1
20260503200548 17 252 17.7 37.0 0.00 0.00 0.00 36 1005.1
20260503195544 17 252 12.9 38.6 0.00 0.00 0.00 36 1005.3
20260503194540 17 237 17.7 40.2 0.00 0.00 0.00 36 1005.5
20260503193516 17 248 14.5 33.8 0.00 0.00 0.00 36 1005.6
20260503192532 18 253 12.9 24.1 0.00 0.00 0.00 37 1005.8
20260503191548 17 245 16.1 33.8 0.00 0.00 0.00 36 1005.9
20260503190524 18 223 12.9 25.7 0.00 0.00 0.00 37 1006.1
20260503185520 18 238 12.9 29.0 0.00 0.00 0.00 37 1006.2
20260503184516 17 246 16.1 38.6 0.00 0.00 0.00 38 1006.4
20260503183532 16 257 16.1 33.8 0.00 0.00 0.00 37 1006.6
20260503182528 17 253 16.1 30.6 0.00 0.00 0.00 36 1006.7
20260503181524 17 256 16.1 30.6 0.00 0.00 0.00 37 1006.9
20260503180520 17 242 11.3 25.7 0.00 0.00 0.00 38 1006.9
20260503175516 17 266 17.7 41.8 0.00 0.00 0.00 36 1007.1
20260503174532 17 251 17.7 41.8 0.00 0.00 0.00 38 1007.2
20260503173528 16 255 12.9 24.1 0.00 0.00 0.00 38 1007.3
20260503172524 16 254 12.9 27.4 0.00 0.00 0.00 38 1007.4
20260503171520 16 259 12.9 25.7 0.00 0.00 0.00 37 1007.5
20260503170516 16 273 16.1 29.0 0.00 0.00 0.00 38 1007.6
20260503150549 15 274 12.9 27.4 0.00 0.00 0.00 39 1008.5
20260503130521 8 254 12.9 30.6 0.00 0.00 0.00 52 1009.1
20260503110534 3 245 6.4 14.5 0.00 0.00 0.00 61 1009.6
20260503081546 4 255 6.4 11.3 0.00 0.00 0.00 61 1010.5
20260503080522 4 254 6.4 12.9 0.00 0.00 0.00 61 1010.6
20260503072526 4 253 4.8 11.3 0.00 0.00 0.00 61 1010.5